Columbia Owens, SC

10:12 AM EST on November 15, 2019 (GMT -0500)
Columbia Owens Downtown

Weather History for KCUB - September, 2019

Change the Weather History Date:

Monday, September 16, 2019

  Actual Average Record
Temperature  
Mean Temperature 84 °F 76 °F  
Max Temperature 96 °F 86 °F 97 °F (2005)
Min Temperature 72 °F 66 °F 55 °F (2001)
Degree Days  
Heating Degree Days 0 0  
Month to date heating degree days 0 0  
Since 1 July heating degree days 0 0  
Cooling Degree Days 19 11  
Month to date cooling degree days 299 205  
Year to date cooling degree days 2422 2023  
Growing Degree Days 34 (Base 50)    
Moisture  
Dew Point 65 °F    
Average Humidity 57    
Maximum Humidity 87    
Minimum Humidity 29    
Precipitation  
Precipitation 0.00 in 0.15 in 1.36 in (2018)
Month to date precipitation 0.78 2.28  
Year to date precipitation 23.96 34.13  
Sea Level Pressure  
Sea Level Pressure 30.01 in    
Wind  
Wind Speed 2 mph (NNE)    
Max Wind Speed 12 mph    
Max Gust Speed 17 mph    
Visibility 10 miles    
Events      
T = Trace of Precipitation, MM = Missing Value Source: NWS Daily Summary

Daily Weather History Graph

Daily Weather History Graph

Search for Another Location

Airport or City:

Astronomy

Sep. 16, 2019 Rise Set
Actual Time 7:07 AM EDT 7:29 PM EDT
Civil Twilight 6:42 AM EDT 7:54 PM EDT
Nautical Twilight 6:13 AM EDT 8:23 PM EDT
Astronomical Twilight 5:43 AM EDT 8:53 PM EDT
Moon 9:08 PM EDT (9/16) 9:09 AM EDT (9/16)
Length of Visible Light 13h 11m
Length of Day
12h 21m
Waning Gibbous, 94% of the Moon is Illuminated
Sep 16
Waning Gibbous
Sep 21
Last Quarter
Sep 28
New
Oct 5
First Quarter
Oct 13
Full

Hourly Weather History & Observations

Time (EDT) Temp. Heat Index Dew Point Humidity Pressure Visibility Wind Dir Wind Speed Gust Speed Precip Events Conditions
12:53 AM 77.0 °F - 68.0 °F 74% 30.05 in 10.0 mi Calm Calm - N/A   Clear
1:53 AM 75.9 °F - 68.0 °F 76% 30.05 in 10.0 mi Calm Calm - N/A   Clear
3:53 AM 73.0 °F - 68.0 °F 84% 30.04 in 10.0 mi Calm Calm - N/A   Clear
4:53 AM 73.0 °F - 68.0 °F 84% 30.03 in 10.0 mi Calm Calm - N/A   Clear
5:53 AM 73.0 °F - 68.0 °F 84% 30.04 in 10.0 mi Calm Calm - N/A   Clear
6:53 AM 73.0 °F - 68.0 °F 84% 30.05 in 10.0 mi Calm Calm - N/A   Clear
7:53 AM 73.9 °F - 69.1 °F 85% 30.06 in 10.0 mi Calm Calm - N/A   Clear
8:53 AM 79.0 °F - 69.1 °F 72% 30.08 in 10.0 mi North 3.5 mph - N/A   Clear
9:53 AM 82.9 °F 86.5 °F 69.1 °F 63% 30.08 in 10.0 mi North - - N/A   Clear
10:53 AM 86.0 °F 89.4 °F 68.0 °F 55% 30.07 in 10.0 mi Variable 6.9 mph - N/A   Clear
11:53 AM 89.1 °F 91.3 °F 66.0 °F 46% 30.05 in 10.0 mi Variable 6.9 mph - N/A   Clear
12:53 PM 90.0 °F 91.3 °F 64.0 °F 42% 30.03 in 10.0 mi North - - N/A   Clear
1:53 PM 93.0 °F 93.8 °F 62.1 °F 36% 30.01 in 10.0 mi NNE 9.2 mph - N/A   Clear
2:53 PM 95.0 °F 94.8 °F 60.1 °F 31% 29.98 in 10.0 mi NNE 10.4 mph 17.3 mph N/A   Clear
3:53 PM 95.0 °F 94.8 °F 60.1 °F 31% 29.95 in 10.0 mi Variable 5.8 mph 17.3 mph N/A   Clear
4:53 PM 96.1 °F 95.6 °F 59.0 °F 29% 29.94 in 10.0 mi Variable 4.6 mph - N/A   Clear
5:53 PM 95.0 °F 94.8 °F 60.1 °F 31% 29.94 in 10.0 mi NNE 3.5 mph - N/A   Clear
6:53 PM 93.0 °F 92.7 °F 60.1 °F 33% 29.94 in 10.0 mi Calm Calm - N/A   Clear
7:53 PM 87.1 °F 87.0 °F 61.0 °F 41% 29.95 in 10.0 mi Calm Calm - N/A   Clear
8:53 PM 82.9 °F 84.0 °F 63.0 °F 51% 29.95 in 10.0 mi Calm Calm - N/A   Clear
9:53 PM 80.1 °F 81.5 °F 63.0 °F 56% 29.97 in 10.0 mi Calm Calm - N/A   Clear
10:53 PM 78.1 °F - 64.0 °F 62% 29.97 in 10.0 mi Calm Calm - N/A   Clear
11:53 PM 75.9 °F - 66.0 °F 71% 29.97 in 10.0 mi Calm Calm - N/A   Clear